BSAT-3B

Last updated on Tue Sep 22 2026 00:03:12 GMT+0000 (Coordinated Universal Time)

1 37207U 10056B 26264.58215110 -.00000354 00000+0 00000+0 0 9995 2 37207 0.0435 240.5128 0004282 326.6232 112.7523 1.00271324 53060
UTC large
Height (km)
Speed (km/s)
/
Latitude / Longitude
Inclination (degrees)
Orbital Period (minutes)
Azimuth
Elevation
Range (km)
Doppler Factor

Next 0 passes for location: London (51.5072 / 0.1276)

No passes found over London.
BSAT-3B